Regional Weather Roundup
Issued by NWS

Home | Current Version | Previous Version | Text Only | Print | Product List | Glossary On
Versions: 1 2 3 4 5 6 7 8 9 10 11 12 13 14 15 16 17 18 19 20 21 22 23 24 25 26 27 28 29 30 31 32 33 34 35 36 37 38 39 40 41 42 43 44 45 46 47 48 49 50
000
ASUS43 KLSX 302257
RWRMO

WEATHER SUMMARY FOR MISSOURI
NATIONAL WEATHER SERVICE SPRINGFIELD MO
600 PM CDT SAT APR 30 2016

NOTE: "FAIR" INDICATES FEW OR NO CLOUDS BELOW 12,000 FEET WITH NO
       SIGNIFICANT WEATHER AND/OR OBSTRUCTIONS TO VISIBILITY.
       CURRENT SKY AND/OR WEATHER CONDITIONS ARE NOT AVAILABLE FOR
       CHILLICOTHE AND FARMINGTON.

MOZ001>031-035>038-043-044-053-054-010000-
...NORTHERN AND WESTERN MISSOURI...

CITY           SKY/WX    TMP DP  RH WIND       PRES   REMARKS
KANSAS CTY INT CLOUDY    65  50  58 W9        29.75R
LEE`S SUMMIT   MOSUNNY   67  49  52 W9G21     29.75R
ST JOSEPH      MOSUNNY   64  47  53 W13       29.76R
CHILLICOTHE      N/A     67  49  52 W5G16     29.76R

$$
MOZ066>068-077>081-088>096-101>105-010000-
...SOUTHWEST MISSOURI...

CITY           SKY/WX    TMP DP  RH WIND       PRES   REMARKS
SPRINGFIELD    PTSUNNY   72  57  59 W10       29.75S
JOPLIN         SUNNY     67  52  58 W13       29.77R
BRANSON        MOSUNNY   72  61  68 NW10      29.76S

$$
MOZ032>034-039>042-045>050-055>058-069>072-010000-
...CENTRAL MISSOURI...

CITY           SKY/WX    TMP DP  RH WIND       PRES   REMARKS
COLUMBIA       NOT AVBL
JEFFERSON CITY PTSUNNY   76  57  51 NW10      29.71R
ROLLA          PTSUNNY   73  62  68 W6        29.72F
SEDALIA        MOSUNNY   71  55  56 W8        29.76R
WARRENSBURG    CLOUDY    68  52  56 SW7       29.75R

$$
MOZ051-052-059>065-010000-
...EAST CENTRAL MISSOURI...

CITY           SKY/WX    TMP DP  RH WIND       PRES   REMARKS
ST LOUIS INTL  PTSUNNY   75  61  61 SE9       29.74S
ST CHARLES     CLOUDY    72  63  73 N5        29.74R

$$
MOZ072>076-082>087-097>100-106>115-010000-
...SOUTH CENTRAL AND SOUTHEAST MISSOURI...

CITY           SKY/WX    TMP DP  RH WIND       PRES   REMARKS
CAPE GIRARDEAU SUNNY     73  61  65 S12       29.79R
POPLAR BLUFF   SUNNY     74  61  63 S13       29.77R
WEST PLAINS    PTSUNNY   74  59  59 SE6       29.76S

$$



USA.gov is the U.S. government's official web portal to all federal, state and local government web resources and services.